ギャラッド彗星

259P/Garradd (2017)

English version
Home page
Updated on March 28, 2019

---------------------------------------------------------------------

・ プロフィール

・ 写真集

・ 軌道要素

Epoch 2017 July 26.0 TT = JDT 2457960.5
T 2017 Aug. 4.03111 TT                                  MPCW
q   1.8089590            (2000.0)            P               Q
n   0.21833881     Peri.  257.50411     +0.59997394     +0.77080585
a   2.7313797      Node    51.48419     -0.58549684     +0.60553176
e   0.3377124      Incl.   15.88957     -0.54518320     +0.19796371
P   4.51
From 65 observations 2008 Sept. 2-2017 Sept. 21, mean residual 0".6.

・ 光度変化

        m1 = 11.0 + 5 logΔ + 30.0 log r(t - 50)

---------------------------------------------------------------------

軌道要素はM.P.E.C. 2017-T14に掲載されたものです。
光度グラフはComet for Windowsで作成したものです。

---------------------------------------------------------------------

Copyright(C) Seiichi Yoshida (comet@aerith.net). All rights reserved.